{"data":{"norad_id":68841,"intl_designator":"2026-094C","name":"STARLINK-37495","alt_names":[],"object_type":"PAYLOAD","status":"ACTIVE","operator":null,"country":"US","launch_date":"2026-04-26","launch_site_code":"AFWTR","launch_vehicle":null,"mission":null,"orbit_class":"UNKNOWN","rcs_meters":null,"size_class":null,"mass_kg":null,"dimensions":null,"purposes":["comms"],"wikipedia_slug":null,"has_3d_model":false,"image_url":null,"decayed_at":null,"tle_current":{"epoch":"2026-05-25T00:07:26.617152Z","epoch_age_seconds":70653,"freshness":"FRESH","line1":"1 68841U 26094C   26145.00516918  .00054026  00000+0  98651-3 0  9994","line2":"2 68841  97.2847 159.5929 0001382 104.9569 255.1835 15.49238574  4487","mean_motion":15.49238574,"eccentricity":0.0001382,"inclination_deg":97.2847,"raan_deg":159.5929,"arg_perigee_deg":104.9569,"mean_anomaly_deg":255.1835,"bstar":0.00098651,"rev_number":448,"period_min":92.948886257205,"perigee_km":418.01290688663,"apogee_km":419.89162235937,"semimajor_km":6797.089264623,"source":"CELESTRAK","updated_at":"2026-05-25T13:38:22.045797Z"}}}